Temperature
-3 -3 -3 -3 -3 -3 -4 -3 -2 -2 -2 -2 -3 -4 -5 -6 -6 -6 -6 -6 -6 -6 -6 -5 -5 -5 -4 -4 -4 -3 -3 -3 -2 -2 -2 -1 -1 -1 -0 -0 0 1 1 1
-4 -4 -4 -4 -4 -4 -4 -4 -4 -4 -4 -3 -5 -6 -6 -6 -6 -6 -6 -6 -6 -6 -6 -6 -6 -5 -5 -5 -4 -4 -4 -3 -3 -3 -2 -2 -2 -1 -1 -1 -0 -0 -0 0
-2 -4 -4 -3 -4 -4 -4 -5 -4 -4 -3 -4 -5 -6 -6 -6 -7 -7 -7 -7 -7 -7 -7 -6 -6 -6 -6 -5 -5 -5 -4 -4 -4 -3 -3 -3 -2 -2 -2 -1 -1 -1 -1 -0
-3 -3 -3 -3 -5 -5 -5 -5 -5 -5 -5 -6 -6 -7 -7 -7 -7 -7 -7 -7 -7 -7 -7 -7 -6 -6 -6 -6 -6 -5 -5 -4 -4 -4 -4 -4 -3 -3 -2 -2 -2 -2 -1 -1
-4 -3 -3 -3 -5 -6 -6 -5 -6 -6 -6 -6 -7 -7 -6 -6 -7 -8 -8 -8 -8 -7 -7 -7 -7 -7 -6 -6 -6 -6 -5 -5 -5 -5 -4 -4 -4 -4 -3 -3 -3 -2 -2 -2
-4 -4 -3 -3 -6 -7 -6 -4 -6 -7 -7 -7 -8 -5 -5 -7 -8 -8 -8 -8 -8 -8 -7 -7 -7 -7 -7 -7 -6 -6 -6 -6 -6 -5 -5 -5 -5 -4 -4 -4 -3 -3 -3 -2
-5 -4 -3 -5 -7 -7 -4 -4 -6 -7 -7 -8 -7 -7 -7 -8 -8 -8 -8 -8 -8 -8 -8 -7 -7 -7 -7 -7 -7 -7 -7 -6 -6 -6 -6 -6 -5 -5 -5 -4 -4 -4 -4 -3
-5 -5 -4 -7 -7 -6 -5 -6 -7 -7 -7 -8 -8 -8 -8 -9 -9 -9 -9 -8 -8 -8 -8 -8 -8 -8 -8 -7 -7 -7 -7 -7 -7 -6 -6 -6 -6 -6 -5 -5 -5 -5 -4 -4
-5 -4 -5 -7 -7 -6 -7 -7 -7 -8 -8 -8 -9 -9 -9 -9 -9 -9 -9 -9 -9 -9 -9 -8 -8 -8 -8 -8 -8 -8 -8 -7 -7 -7 -7 -7 -6 -6 -6 -6 -6 -5 -5 -5
-7 -6 -7 -7 -7 -7 -7 -8 -8 -8 -8 -9 -9 -9 -9 -9 -9 -9 -9 -9 -9 -9 -9 -9 -9 -8 -8 -8 -8 -8 -8 -8 -8 -7 -7 -7 -7 -7 -7 -7 -6 -6 -6 -6
-7 -6 -7 -7 -7 -7 -7 -8 -8 -8 -9 -9 -9 -9 -10 -10 -10 -10 -10 -10 -10 -10 -10 -9 -9 -9 -9 -9 -8 -8 -8 -8 -8 -8 -8 -7 -7 -7 -7 -7 -7 -7 -7 -6
-5 -6 -7 -7 -7 -7 -8 -8 -8 -9 -9 -9 -10 -10 -10 -10 -10 -10 -10 -10 -10 -10 -10 -10 -9 -9 -9 -9 -9 -9 -9 -8 -8 -8 -8 -8 -8 -8 -8 -8 -7 -7 -7 -7
-7 -7 -8 -8 -8 -8 -8 -9 -9 -9 -9 -10 -10 -10 -10 -10 -10 -10 -10 -10 -10 -10 -10 -10 -10 -10 -9 -10 -9 -9 -9 -9 -9 -9 -9 -9 -9 -8 -8 -8 -8 -8 -7 -7
-8 -8 -8 -8 -8 -9 -9 -9 -9 -10 -10 -10 -10 -10 -10 -10 -10 -10 -10 -10 -10 -10 -10 -10 -10 -10 -10 -10 -10 -10 -10 -10 -10 -9 -9 -9 -9 -9 -9 -9 -8 -8 -8 -7
-8 -8 -8 -9 -9 -9 -9 -10 -10 -10 -10 -10 -10 -11 -11 -11 -10 -10 -11 -11 -11 -10 -10 -10 -10 -10 -10 -10 -10 -10 -10 -10 -10 -10 -10 -10 -10 -10 -9 -9 -9 -9 -8 -8
-8 -9 -9 -9 -9 -9 -10 -10 -10 -10 -10 -11 -11 -11 -11 -11 -11 -11 -11 -11 -11 -11 -11 -11 -11 -10 -10 -10 -11 -11 -11 -11 -11 -11 -11 -10 -10 -10 -10 -10 -10 -9 -9 -9
-9 -9 -9 -9 -9 -10 -10 -10 -10 -11 -11 -11 -11 -11 -11 -11 -11 -11 -11 -11 -11 -11 -11 -11 -11 -11 -11 -11 -11 -11 -11 -11 -11 -11 -11 -11 -11 -11 -10 -10 -10 -10 -10 -9
-8 -9 -9 -9 -10 -10 -10 -10 -11 -11 -11 -11 -11 -11 -11 -11 -11 -11 -11 -11 -11 -11 -11 -11 -11 -11 -11 -11 -11 -11 -11 -11 -11 -11 -11 -11 -11 -11 -11 -11 -11 -10 -10 -10
-9 -9 -9 -10 -10 -10 -10 -11 -11 -11 -11 -11 -11 -11 -12 -12 -12 -12 -12 -12 -11 -11 -11 -11 -11 -11 -11 -11 -11 -11 -11 -11 -11 -11 -11 -11 -11 -11 -11 -11 -11 -11 -11 -11
-9 -9 -10 -10 -10 -10 -11 -11 -11 -11 -12 -12 -12 -12 -12 -12 -12 -12 -12 -12 -12 -12 -12 -12 -12 -12 -12 -12 -12 -12 -12 -12 -12 -12 -12 -12 -12 -12 -12 -12 -11 -11 -11 -11
-9 -10 -10 -10 -10 -11 -11 -11 -11 -11 -12 -12 -12 -12 -12 -12 -12 -12 -12 -12 -12 -12 -12 -12 -12 -12 -12 -12 -12 -12 -12 -12 -12 -12 -12 -12 -12 -12 -12 -12 -12 -12 -11 -11
-9 -10 -10 -10 -11 -11 -11 -11 -12 -12 -12 -12 -12 -13 -13 -13 -13 -13 -13 -13 -13 -13 -13 -13 -13 -13 -12 -12 -12 -12 -12 -12 -12 -12 -12 -12 -12 -12 -12 -12 -12 -12 -12 -12
-10 -10 -10 -11 -11 -11 -11 -12 -12 -12 -12 -13 -13 -13 -13 -13 -13 -13 -13 -13 -13 -13 -13 -13 -13 -13 -13 -13 -13 -13 -13 -13 -13 -13 -13 -13 -13 -13 -12 -12 -12 -12 -12 -12
-10 -10 -11 -11 -11 -12 -12 -12 -12 -13 -13 -13 -13 -13 -13 -13 -13 -13 -14 -14 -14 -13 -13 -13 -13 -13 -13 -13 -13 -13 -13 -13 -13 -13 -13 -13 -13 -13 -13 -13 -13 -13 -12 -12
-11 -11 -11 -11 -12 -12 -12 -12 -13 -13 -13 -13 -13 -13 -14 -14 -14 -14 -14 -14 -14 -14 -14 -13 -14 -14 -14 -13 -13 -13 -13 -13 -13 -13 -13 -13 -13 -13 -13 -13 -13 -13 -13 -13
-11 -11 -12 -12 -12 -12 -13 -13 -13 -13 -13 -13 -13 -14 -14 -14 -14 -14 -14 -14 -14 -14 -14 -14 -14 -14 -14 -14 -14 -14 -14 -13 -13 -14 -13 -13 -13 -13 -13 -13 -13 -13 -13 -13
-12 -12 -12 -12 -13 -13 -13 -13 -13 -14 -14 -14 -14 -14 -14 -14 -14 -14 -14 -14 -14 -14 -14 -14 -14 -14 -14 -14 -14 -14 -14 -14 -14 -14 -14 -14 -14 -14 -13 -13 -13 -13 -13 -13
Wind_Speed
4 4 3 5 6 4 5 6 6 7 9 11 9 8 9 9 9 10 10 10 10 10 10 10 10 10 9 9 9 8 7 6 6 6 6 6 6 5 5 5 6 5 5 5
3 3 3 6 8 7 7 7 9 10 11 8 7 7 8 9 10 10 11 11 11 11 10 10 10 10 9 9 9 8 8 7 7 7 6 6 6 6 5 5 5 5 5 6
3 3 5 6 5 5 4 5 6 7 7 7 8 8 9 10 10 10 11 12 12 11 10 10 10 10 9 9 9 8 7 7 7 6 6 6 6 6 6 6 5 5 5 6
3 3 4 1 1 2 4 6 6 7 7 8 9 10 10 9 9 10 12 12 12 11 10 10 10 9 9 8 8 8 8 7 7 7 7 7 7 6 6 6 5 5 5 6
2 3 6 4 1 1 3 5 4 6 8 8 8 9 7 5 7 10 11 11 10 10 10 10 10 9 8 8 8 7 8 8 8 7 8 7 7 7 6 6 6 5 5 6
2 3 4 2 1 0 2 4 2 4 7 7 7 7 7 8 10 11 11 10 10 9 9 9 9 8 7 8 7 8 8 8 8 7 8 8 8 7 7 6 6 6 5 5
4 5 6 2 1 2 3 3 1 4 5 5 6 7 9 11 11 11 11 11 10 9 9 9 8 7 7 8 8 9 8 8 8 7 7 8 7 7 6 6 6 6 6 5
4 4 5 3 4 4 4 3 3 4 5 6 8 9 10 10 11 11 10 10 10 9 9 8 8 7 8 9 9 9 8 8 8 7 7 6 7 6 6 6 5 5 5 5
6 5 2 5 5 4 3 4 4 5 6 7 8 9 10 10 10 10 10 10 9 9 9 9 8 7 9 10 9 9 8 8 7 7 6 6 6 6 5 5 4 4 4 4
5 8 6 6 7 6 6 6 6 6 6 6 8 9 9 9 9 9 9 9 9 9 9 9 9 8 9 9 9 8 8 8 7 7 6 6 5 5 4 4 4 5 5 5
7 8 6 5 6 6 6 6 7 7 6 7 7 8 8 8 9 8 9 8 8 8 9 10 10 9 9 9 8 8 8 7 7 6 6 6 5 5 5 5 5 6 5 5
6 4 4 4 3 3 5 6 7 7 7 6 6 8 8 8 8 8 8 8 8 8 9 9 9 9 9 8 7 7 7 7 6 5 5 5 5 6 6 7 8 8 8 8
4 2 4 6 5 4 5 6 6 6 6 6 6 6 7 7 7 8 8 8 8 9 9 9 9 9 9 8 7 6 7 7 6 6 6 6 5 6 6 6 7 7 8 9
5 3 5 4 4 4 5 5 5 5 5 5 5 6 6 7 7 8 8 8 9 9 9 9 9 10 9 8 7 7 7 7 6 6 6 5 5 5 5 6 6 6 6 8
6 6 6 5 5 5 4 4 5 5 5 5 5 5 6 7 8 8 8 8 8 8 8 8 9 10 9 8 7 7 6 5 5 5 5 5 5 5 5 6 5 6 5 5
4 5 5 6 6 5 5 5 5 6 6 6 6 6 7 7 8 8 8 7 7 8 8 8 9 10 9 7 7 6 5 7 7 5 5 5 5 5 5 5 5 5 5 5
4 4 4 5 6 6 6 6 6 6 6 7 7 7 7 7 7 7 8 7 7 8 8 8 9 9 8 7 6 5 5 6 7 6 5 5 5 5 5 5 5 5 5 6
7 7 6 6 6 6 6 6 6 6 6 7 7 6 6 6 7 8 8 8 8 8 8 8 8 8 7 7 6 5 5 5 5 5 5 5 5 5 5 5 5 5 5 5
6 6 6 6 6 6 6 6 6 6 6 5 6 6 6 7 7 8 8 7 7 8 8 8 10 8 7 7 7 5 5 5 5 5 5 6 6 5 5 5 5 5 5 5
4 5 5 5 5 5 5 5 5 5 5 5 5 6 6 7 7 7 7 7 6 6 8 9 8 7 7 7 7 5 5 6 6 5 5 5 5 5 5 5 5 5 5 5
5 5 5 5 5 5 5 5 5 5 5 4 5 6 7 7 6 6 6 7 6 7 8 9 7 6 6 6 6 5 5 5 5 5 5 5 5 5 5 5 5 5 5 4
4 4 5 4 4 5 4 4 4 5 5 5 5 5 6 6 6 6 6 6 7 9 8 6 6 7 9 8 5 5 5 5 5 5 5 5 5 5 5 5 5 5 5 4
4 4 4 4 5 5 5 4 4 4 5 5 6 6 6 6 5 5 6 5 6 9 7 6 8 11 11 6 5 5 5 5 5 5 5 5 5 5 5 6 5 5 5 5
4 4 4 4 3 4 5 5 4 4 5 6 5 5 5 5 5 4 5 8 9 10 7 8 11 11 10 5 5 5 5 5 5 5 5 5 5 5 5 5 5 5 5 6
3 3 3 3 3 4 5 5 5 5 5 4 5 5 4 4 4 5 6 7 9 9 6 8 10 10 7 5 5 5 5 5 5 5 5 5 5 5 5 5 5 5 5 5
3 3 3 4 4 4 4 3 4 4 4 4 4 4 4 4 5 5 5 6 7 8 7 6 6 7 5 5 5 5 5 6 6 6 6 6 6 6 6 6 7 6 6 5
3 3 3 3 3 3 3 3 4 4 4 4 5 5 5 5 4 5 5 5 5 5 5 5 5 5 5 5 6 5 5 5 5 5 6 6 6 6 6 7 6 6 6 6
Wind_Direction
267 283 288 287 288 273 232 246 257 273 280 295 314 310 312 316 318 321 323 327 328 327 326 326 325 327 327 326 326 323 318 316 314 311 310 309 304 298 290 285 282 278 274 262
271 264 292 289 285 271 256 251 254 270 282 298 314 310 309 314 317 317 318 320 320 320 321 321 321 321 321 322 323 323 320 316 314 311 308 306 304 300 296 288 281 275 274 266
284 319 296 282 267 238 235 235 242 260 282 313 312 311 309 308 309 309 311 314 313 312 312 313 313 313 313 315 317 317 317 316 316 313 312 310 308 307 301 294 288 282 274 267
296 316 264 322 63 246 247 258 244 262 287 300 302 305 298 296 300 306 311 311 310 309 309 310 310 311 310 312 314 314 315 315 314 312 308 307 306 306 303 296 291 286 282 274
258 277 278 284 234 225 248 277 245 255 279 298 312 305 296 308 306 306 307 307 305 305 305 306 308 311 312 312 313 312 312 312 311 309 306 304 304 303 299 296 291 287 285 282
222 252 265 309 92 303 241 270 221 249 280 302 317 308 315 332 321 314 313 313 311 309 309 309 311 312 309 310 311 309 308 307 306 304 301 298 297 296 294 291 288 288 284 282
232 246 268 302 122 172 236 307 308 264 278 283 279 284 305 313 315 315 315 317 317 314 312 312 314 312 309 310 308 306 305 305 305 304 301 296 296 295 294 292 288 285 284 285
208 230 260 141 151 209 268 325 278 279 279 276 281 292 301 308 313 316 316 318 319 316 314 316 318 314 309 306 306 307 305 305 306 306 304 300 299 299 296 290 283 281 283 287
211 231 313 178 217 261 293 274 277 284 285 279 283 292 300 306 310 312 313 316 317 315 314 318 319 314 306 306 310 308 307 307 306 307 305 301 298 298 296 288 281 280 280 281
253 262 262 247 258 270 267 268 280 282 282 280 283 292 298 302 305 309 312 314 315 315 315 317 319 315 308 307 310 310 309 308 308 308 309 308 301 295 293 288 281 279 278 279
253 273 287 262 250 267 273 275 282 284 280 279 283 290 296 300 302 305 309 311 313 312 311 312 317 315 315 314 313 311 311 310 310 310 310 309 305 299 292 286 280 278 276 275
248 250 249 279 293 280 277 281 282 283 285 283 280 284 293 296 300 303 306 310 311 311 311 311 314 314 316 316 313 312 313 314 311 309 308 307 307 308 302 294 297 287 285 284
258 280 266 281 286 286 282 283 282 276 278 285 288 285 288 295 300 302 304 308 308 308 308 309 311 313 316 318 314 310 309 310 310 309 307 306 307 307 309 311 307 295 290 292
247 260 270 266 273 286 286 290 288 284 283 283 287 290 290 294 300 302 303 305 306 306 306 308 310 311 316 319 316 311 309 309 309 308 307 306 305 304 303 306 310 307 301 298
241 240 255 276 285 287 289 290 289 289 292 295 295 294 296 297 297 299 303 307 308 308 309 313 313 314 318 317 314 311 309 309 310 308 307 307 305 304 303 303 304 305 306 307
258 258 257 263 272 281 287 286 285 289 295 296 296 296 296 294 295 298 304 309 310 310 313 314 312 315 320 318 315 312 311 314 316 311 310 309 307 306 306 308 308 310 307 308
244 257 256 266 271 276 275 274 276 283 288 291 294 298 300 301 302 305 309 311 305 302 306 309 311 317 320 320 316 313 313 316 318 314 312 313 313 311 308 307 309 312 313 315
242 253 256 261 267 272 277 277 276 279 282 289 295 296 296 298 300 305 310 313 312 312 313 313 314 318 320 320 317 313 312 313 316 314 314 314 314 313 313 313 314 313 315 322
248 254 259 260 262 264 269 274 277 280 284 288 289 290 291 292 296 302 308 311 312 315 321 320 321 319 318 321 321 311 311 312 312 312 312 315 316 315 314 314 315 315 316 319
258 259 262 265 265 262 266 273 277 280 283 284 285 288 293 297 301 304 305 300 298 304 312 318 317 314 314 315 318 310 309 308 308 309 310 312 313 314 314 313 312 313 313 313
267 269 269 269 272 272 270 271 272 278 284 281 277 281 288 296 301 301 302 303 309 313 314 317 318 316 316 318 314 309 308 307 306 306 306 307 308 310 312 314 315 315 316 317
268 270 273 275 278 283 284 278 273 277 283 283 281 282 287 294 300 298 287 288 305 317 320 314 314 318 322 320 316 315 314 312 311 310 310 311 311 311 313 314 314 314 314 314
268 268 272 275 277 286 292 283 275 275 277 281 283 283 284 290 295 297 303 307 309 314 316 310 315 319 321 319 313 310 309 308 307 306 305 306 306 306 307 308 309 310 311 311
273 274 279 286 288 286 290 293 288 284 282 283 280 278 283 291 293 285 288 305 313 313 311 312 318 319 320 316 309 305 303 302 302 301 302 302 302 303 303 303 305 306 306 306
278 278 281 282 279 280 287 295 296 294 293 292 292 291 284 280 285 299 303 305 311 313 310 314 320 323 322 312 308 304 301 299 299 299 297 298 299 299 299 300 300 299 300 299
278 274 270 266 271 279 286 289 292 297 300 302 305 305 302 298 295 298 301 306 308 311 311 310 315 317 313 308 305 302 301 302 303 301 299 297 297 296 295 297 297 295 295 294
284 284 283 283 282 282 284 285 288 294 297 298 301 304 307 307 306 307 307 307 309 309 308 308 310 309 307 305 303 302 301 300 298 298 298 295 295 294 294 293 292 292 290 291
Height
1545 1546 1546 1544 1542 1542 1542 1537 1532 1527 1527 1526 1527 1528 1526 1524 1521 1518 1515 1512 1509 1506 1503 1499 1496 1493 1490 1488 1485 1483 1482 1480 1478 1477 1476 1476 1475 1475 1475 1475 1475 1475 1475 1476
1545 1545 1545 1543 1540 1539 1539 1539 1536 1533 1530 1528 1529 1527 1525 1522 1520 1517 1514 1511 1507 1504 1501 1497 1494 1491 1488 1485 1483 1481 1479 1477 1476 1474 1473 1472 1472 1471 1470 1470 1471 1471 1471 1471
1538 1544 1542 1534 1536 1537 1537 1536 1535 1530 1529 1528 1527 1526 1524 1521 1518 1516 1513 1509 1506 1502 1499 1495 1492 1489 1486 1483 1480 1478 1476 1474 1473 1471 1470 1469 1468 1467 1466 1466 1466 1466 1466 1466
1541 1541 1538 1534 1538 1537 1536 1534 1533 1531 1529 1529 1527 1524 1521 1519 1516 1514 1510 1507 1503 1500 1496 1493 1489 1486 1483 1480 1478 1475 1473 1471 1470 1468 1466 1465 1464 1462 1462 1461 1460 1461 1461 1461
1542 1538 1531 1532 1536 1537 1536 1531 1530 1530 1528 1527 1525 1521 1518 1516 1514 1511 1508 1504 1501 1497 1494 1490 1487 1483 1480 1477 1475 1472 1470 1468 1466 1465 1463 1461 1460 1458 1458 1457 1456 1456 1455 1455
1544 1538 1531 1528 1535 1536 1537 1528 1527 1527 1526 1525 1523 1519 1515 1514 1511 1508 1504 1501 1497 1494 1490 1487 1484 1481 1478 1475 1472 1470 1468 1466 1464 1462 1460 1458 1456 1455 1454 1453 1452 1451 1451 1451
1544 1539 1530 1532 1535 1536 1531 1524 1526 1525 1524 1523 1522 1519 1516 1511 1508 1505 1502 1498 1495 1491 1487 1484 1481 1478 1475 1472 1469 1467 1465 1463 1460 1458 1456 1454 1453 1451 1450 1449 1448 1447 1447 1446
1542 1539 1531 1532 1533 1532 1526 1525 1524 1523 1522 1520 1518 1516 1513 1509 1506 1502 1498 1495 1492 1488 1485 1482 1479 1476 1472 1469 1467 1465 1462 1459 1457 1455 1453 1451 1449 1448 1446 1445 1444 1443 1443 1442
1536 1531 1528 1528 1527 1526 1524 1523 1522 1520 1519 1517 1514 1512 1509 1506 1503 1499 1496 1492 1489 1486 1482 1479 1476 1473 1470 1467 1464 1462 1459 1456 1454 1451 1450 1448 1446 1444 1443 1442 1441 1440 1439 1439
1534 1527 1526 1525 1524 1523 1522 1520 1519 1518 1516 1513 1511 1508 1506 1503 1499 1496 1493 1490 1486 1483 1479 1476 1473 1470 1467 1464 1462 1459 1456 1453 1451 1449 1447 1445 1443 1441 1440 1439 1437 1436 1436 1435
1530 1524 1523 1520 1520 1519 1518 1517 1516 1514 1512 1510 1508 1505 1502 1499 1496 1493 1490 1487 1484 1481 1477 1474 1471 1468 1465 1462 1459 1456 1453 1451 1448 1446 1444 1442 1440 1438 1437 1435 1434 1433 1432 1431
1521 1520 1520 1518 1517 1516 1515 1513 1512 1510 1508 1506 1504 1502 1499 1496 1494 1491 1487 1484 1481 1478 1475 1471 1468 1465 1462 1459 1456 1453 1450 1448 1445 1443 1441 1439 1437 1435 1433 1432 1430 1429 1428 1427
1518 1517 1517 1515 1514 1513 1512 1510 1508 1506 1504 1502 1501 1499 1496 1493 1491 1488 1485 1482 1478 1475 1472 1469 1465 1462 1459 1456 1453 1450 1448 1445 1443 1440 1438 1436 1434 1431 1429 1428 1426 1425 1423 1422
1515 1515 1513 1512 1511 1510 1509 1507 1505 1503 1501 1499 1497 1495 1493 1490 1488 1485 1482 1479 1476 1472 1469 1466 1463 1459 1456 1453 1450 1448 1445 1443 1440 1438 1435 1433 1431 1429 1427 1424 1422 1420 1419 1418
1511 1511 1510 1509 1508 1507 1505 1503 1501 1500 1498 1496 1494 1492 1490 1487 1484 1482 1479 1476 1473 1470 1466 1463 1460 1456 1454 1451 1448 1445 1443 1440 1438 1435 1433 1430 1428 1426 1424 1421 1419 1417 1415 1415
1508 1507 1506 1505 1504 1503 1502 1500 1498 1496 1495 1493 1491 1489 1487 1484 1482 1479 1476 1473 1470 1466 1463 1460 1457 1454 1451 1448 1446 1443 1440 1438 1436 1433 1430 1428 1426 1423 1421 1419 1417 1415 1413 1412
1504 1503 1502 1502 1501 1500 1498 1497 1495 1493 1492 1490 1488 1486 1484 1481 1478 1476 1473 1470 1467 1464 1461 1458 1455 1452 1449 1447 1444 1441 1438 1436 1434 1431 1428 1426 1424 1422 1420 1417 1415 1413 1411 1410
1501 1501 1500 1499 1497 1496 1495 1493 1492 1490 1488 1487 1485 1483 1480 1478 1475 1473 1470 1467 1465 1462 1459 1456 1453 1450 1448 1445 1442 1440 1437 1434 1432 1429 1427 1424 1422 1420 1418 1416 1413 1411 1410 1408
1498 1498 1497 1495 1494 1493 1491 1490 1488 1487 1485 1483 1481 1479 1477 1475 1473 1470 1468 1465 1462 1459 1457 1454 1451 1449 1446 1444 1441 1438 1436 1433 1430 1428 1425 1423 1421 1419 1417 1414 1412 1410 1409 1407
1495 1494 1493 1492 1491 1489 1488 1486 1485 1483 1482 1480 1478 1476 1474 1472 1470 1467 1465 1462 1460 1457 1454 1452 1449 1447 1444 1442 1439 1437 1434 1431 1429 1426 1424 1421 1419 1417 1415 1413 1411 1409 1407 1405
1492 1491 1490 1489 1487 1486 1485 1483 1481 1480 1478 1476 1475 1473 1471 1469 1467 1464 1462 1459 1457 1455 1452 1449 1447 1445 1442 1440 1437 1435 1432 1430 1427 1425 1422 1420 1418 1415 1413 1411 1409 1407 1405 1403
1489 1488 1486 1485 1484 1482 1481 1480 1478 1476 1475 1473 1471 1469 1467 1466 1464 1461 1459 1457 1455 1452 1449 1447 1445 1442 1440 1438 1435 1433 1430 1428 1426 1423 1421 1419 1416 1414 1412 1410 1407 1406 1404 1402
1486 1484 1483 1482 1480 1479 1478 1476 1475 1473 1471 1469 1468 1466 1464 1462 1460 1458 1456 1454 1451 1449 1447 1444 1442 1440 1438 1435 1433 1431 1428 1426 1424 1422 1419 1417 1415 1412 1410 1408 1406 1404 1402 1400
1483 1481 1480 1479 1477 1476 1474 1473 1471 1470 1468 1466 1464 1463 1461 1459 1457 1455 1453 1451 1448 1446 1443 1441 1439 1437 1435 1432 1430 1428 1426 1424 1422 1419 1417 1415 1413 1411 1408 1406 1404 1402 1400 1399
1480 1478 1477 1475 1474 1472 1471 1470 1468 1466 1465 1463 1461 1459 1458 1456 1454 1452 1450 1447 1445 1443 1440 1438 1436 1434 1431 1429 1427 1425 1423 1421 1419 1417 1415 1412 1410 1408 1406 1404 1402 1401 1399 1397
1476 1475 1474 1472 1471 1470 1468 1467 1465 1463 1461 1460 1458 1456 1454 1452 1450 1448 1446 1444 1442 1439 1437 1435 1433 1431 1429 1427 1425 1423 1420 1418 1416 1414 1412 1410 1408 1406 1404 1402 1400 1398 1397 1395
1473 1472 1471 1469 1468 1467 1465 1464 1462 1460 1458 1457 1455 1453 1451 1449 1447 1445 1443 1441 1439 1436 1434 1432 1430 1428 1426 1424 1422 1420 1418 1416 1413 1411 1409 1407 1405 1403 1401 1399 1397 1396 1394 1392